[[{"header":{"parameterUnit":"m.s-1","parameterCategory":1,"la1":30.2991,"la2":30.254,"lo1":-89.0895,"lo2":-89.0444,"dy":0.0017,"dx":0.0017,"nx":28,"ny":28,"refTime":"2023-07-29T09:00:00:Z","depth":0,"parameterNumber":2,"parameterNumberName":"U-component_of_WINDS"},"data":[0,0,0,0,0,0,0,0,0,0,0,0,0,0,0,0,0,0,0,0,0,0,0,0,0,0,0,0,0,0,0,0,0,0,0,0,0,0,0,0,0,0,0,0,0,0,0,0,0,0,0,0,0,0,0,0,0,0,2.2359,2.236,0,2.2477,2.2478,2.2479,2.2457,2.2454,2.2452,2.245,2.2578,2.2583,2.2588,0,0,0,0,0,0,0,0,0,0,0,0,0,2.2121,2.2126,2.2359,2.2361,2.2362,2.2476,2.2478,2.248,2.2457,2.2454,2.2452,2.2449,2.2576,2.2582,2.2589,0,0,0,0,0,0,0,0,0,0,0,0,0,2.223,2.2127,2.2359,2.2364,2.2366,2.2476,2.2478,2.248,2.2458,2.2454,2.2451,2.2448,2.2574,2.2582,2.259,2.2704,0,0,2.2614,2.2618,0,0,0,0,0,0,0,0,2.2224,2.2239,2.2362,2.2364,2.2366,2.2448,2.2441,2.2555,2.2458,2.2423,2.245,2.2447,2.2538,2.2549,2.2578,2.271,2.2715,2.2615,2.262,2.2623,2.2626,0,0,0,0,0,0,0,2.2217,2.2234,2.2406,2.2364,2.2366,2.2363,2.2375,2.2462,2.2497,2.2426,2.2424,2.2438,2.2538,2.257,2.2581,2.2717,2.2615,2.2622,2.2627,2.263,2.2948,2.2951,0,0,0,0,0,0,2.2206,2.2228,2.2402,2.2409,2.2286,2.237,2.2383,2.2425,2.2496,2.2504,2.2441,2.2437,2.2558,2.2571,2.2585,2.2723,2.2623,2.2631,2.2636,2.2944,2.2949,2.2952,0,0,0,0,0,0,2.2201,2.2222,2.2397,2.2318,2.234,2.2377,2.2425,2.2429,2.2461,2.2507,2.2514,2.2467,2.2556,2.2574,2.2674,2.2727,2.2635,2.2642,2.294,2.2946,2.2951,2.2999,0,0,0,0,0,0,2.2194,2.222,2.2263,2.2319,2.2344,2.2482,2.2428,2.2434,2.2474,2.247,2.2533,2.2541,2.2555,2.2662,2.2682,2.2736,2.2648,2.2935,2.2943,2.2949,2.2993,2.3005,2.3016,0,0,0,0,0,2.2186,2.2273,2.2265,2.2286,2.2398,2.2485,2.25,2.2512,2.2479,2.2522,2.2552,2.2539,2.2718,2.2672,2.2695,2.2752,2.2932,2.2941,2.2948,2.2988,2.3003,2.3016,0,0,0,0,0,0,2.2225,2.2281,2.2272,2.238,2.2428,2.2481,2.2537,2.2528,2.2588,2.2582,2.2597,2.2612,2.2713,2.2743,2.2691,2.2866,2.2821,2.2833,2.2843,2.2858,2.2869,2.286,2.2655,0,0,0,0,0,2.2245,2.231,2.2356,2.2447,2.2471,2.25,2.2539,2.2543,2.2595,2.2615,2.2652,2.2704,2.2772,2.2817,2.2882,2.2997,2.3011,2.3048,2.3059,2.3069,2.308,2.3143,2.316,2.2979,2.2979,2.2979,0,0,2.229,2.2328,2.2369,2.2456,2.2493,2.2561,2.2517,2.2591,2.2642,2.2628,2.2723,2.2752,2.2811,2.2919,2.2968,2.2947,2.3133,2.3079,2.3086,2.3092,2.3153,2.317,2.3185,2.2985,2.2984,2.2983,0,0,2.2405,2.244,2.2519,2.2557,2.2614,2.2632,2.2651,2.2706,2.2723,2.2819,2.2809,2.2871,2.2988,2.303,2.3067,2.3196,2.3186,2.3217,2.3278,2.3339,2.3353,2.3366,2.3412,2.3428,2.3228,2.3228,2.3228,0,2.2453,2.2553,2.2562,2.2636,2.2675,2.2662,2.2743,2.278,2.2856,2.2884,2.2858,2.3003,2.3042,2.3159,2.319,2.3221,2.3244,2.321,2.335,2.3363,2.3375,2.3419,2.3436,2.3232,2.3231,2.3231,2.3231,0,2.261,2.2679,2.2737,2.2807,2.2852,2.293,2.2952,2.2997,2.2998,2.302,2.3118,2.3163,2.3237,2.3265,2.3268,2.3383,2.3368,2.3346,2.3301,2.3395,2.3437,2.3454,2.3236,2.3235,2.3234,2.3233,0,0,2.2753,2.2826,2.2847,2.2878,2.2939,2.2994,2.3071,2.3141,2.3179,2.3232,2.3298,2.3396,2.3376,2.3417,2.3425,2.3479,2.3578,2.345,2.3452,2.3472,2.3707,2.3722,2.3741,2.3571,2.3575,2.3577,2.3701,0,2.2873,2.3007,2.3016,2.3138,2.3202,2.319,2.3258,2.3303,2.3325,2.3385,2.341,2.3479,2.3447,2.3472,2.3525,2.3554,2.3625,2.3546,2.3634,2.3637,2.3619,2.3763,2.378,2.3895,2.3718,2.3721,2.3723,0,2.3032,2.3086,2.3213,2.3263,2.3291,2.3351,2.3415,2.3471,2.3523,2.3536,2.3581,2.3581,2.3662,2.3613,2.3725,2.367,2.3707,2.3727,2.3732,2.3741,2.3685,2.3776,2.3932,2.3949,2.3748,2.3746,2.3745,0,2.3123,2.3228,2.3317,2.3345,2.3406,2.3449,2.3477,2.3525,2.3566,2.3623,2.3649,2.3716,2.3752,2.3805,2.3823,2.3785,2.3934,2.3887,2.3947,2.3947,2.3979,2.3977,2.4144,2.4004,2.4003,2.4003,2.4003,0,2.3256,2.3334,2.3359,2.3414,2.3501,2.3512,2.3599,2.3625,2.3668,2.3729,2.3724,2.3781,2.3802,2.3864,2.3879,2.3969,2.3986,2.3999,2.4002,2.3999,2.3997,2.4023,2.4016,2.4008,2.4007,2.4006,2.4005,0,2.3372,2.3392,2.3488,2.3538,2.3552,2.3614,2.3658,2.3711,2.3732,2.3809,2.3828,2.3861,2.3933,2.3956,2.4044,2.4054,2.4159,2.4156,2.4141,2.4141,2.42,2.4194,2.4389,2.4415,2.4259,2.426,2.4261,0,2.3455,2.3515,2.357,2.3609,2.3638,2.3702,2.3742,2.3756,2.3799,2.3862,2.3908,2.3979,2.4036,2.4152,2.4185,2.4252,2.425,2.4314,2.426,2.4255,2.425,2.4246,2.4252,2.4324,2.4326,2.4327,2.4328,0,2.3601,2.3607,2.3665,2.3727,2.3775,2.3824,2.3872,2.3905,2.3926,2.3975,2.4047,2.4091,2.4179,2.425,2.4318,2.4349,2.4343,2.4344,2.4362,2.4359,2.4348,2.4354,2.4168,2.434,2.4339,2.4338,2.4337,2.4337,2.3703,2.3755,2.3801,2.3866,2.3903,2.3947,2.3999,2.4025,2.4085,2.4156,2.4161,2.4239,2.429,2.438,2.4414,2.4476,2.4458,2.4484,2.449,2.4496,2.45,2.4338,2.4489,2.4489,2.4489,2.4488,2.4488,0,2.3848,2.3876,2.3936,2.4001,2.4052,2.4039,2.4092,2.4136,2.4203,2.425,2.4305,2.4388,2.4456,2.4494,2.4562,2.4605,2.4604,2.4622,2.4619,2.4626,2.4513,2.4491,2.4622,2.4622,2.4622,2.4622,2.4622,2.4622,2.3929,2.4015,2.4027,2.4132,2.4161,2.4235,2.4266,2.4308,2.4344,2.4436,2.4492,2.4515,2.4558,2.4629,2.4692,2.4701,2.4726,2.4747,2.4755,2.4648,2.4634,2.4621,2.46,2.4753,2.4753,2.4863,2.4864,2.4864]},{"header":{"parameterUnit":"m.s-1","parameterCategory":1,"la1":30.2991,"la2":30.254,"lo1":-89.0895,"lo2":-89.0444,"dy":0.0017,"dx":0.0017,"nx":28,"ny":28,"refTime":"2023-07-29T09:00:00:Z","depth":0,"parameterNumber":3,"parameterNumberName":"V-component_of_WINDS"},"data":[0,0,0,0,0,0,0,0,0,0,0,0,0,0,0,0,0,0,0,0,0,0,0,0,0,0,0,0,0,0,0,0,0,0,0,0,0,0,0,0,0,0,0,0,0,0,0,0,0,0,0,0,0,0,0,0,0,0,3.0987,3.0987,0,3.1053,3.1053,3.1054,3.1042,3.1041,3.1039,3.1038,3.1102,3.1105,3.1108,0,0,0,0,0,0,0,0,0,0,0,0,0,3.0843,3.0846,3.0987,3.0987,3.0988,3.1053,3.1053,3.1054,3.1042,3.104,3.1039,3.1038,3.1101,3.1104,3.1108,0,0,0,0,0,0,0,0,0,0,0,0,0,3.0907,3.0847,3.0986,3.099,3.0991,3.1052,3.1053,3.1055,3.1042,3.104,3.1039,3.1037,3.11,3.1104,3.1108,3.1169,0,0,3.1121,3.1123,0,0,0,0,0,0,0,0,3.0904,3.0912,3.0989,3.099,3.0991,3.1037,3.1026,3.1093,3.1043,3.1023,3.1038,3.1036,3.1082,3.1087,3.1103,3.1172,3.1175,3.1121,3.1124,3.1126,3.1127,0,0,0,0,0,0,0,3.0899,3.0909,3.1013,3.099,3.0991,3.0986,3.0993,3.1039,3.1061,3.1024,3.1024,3.1032,3.1082,3.1099,3.1105,3.1176,3.1121,3.1125,3.1128,3.1129,3.1293,3.1295,0,0,0,0,0,0,3.0894,3.0906,3.1011,3.1015,3.0942,3.099,3.0998,3.1024,3.1061,3.1065,3.1033,3.1031,3.1093,3.11,3.1107,3.1177,3.1126,3.113,3.1132,3.1291,3.1293,3.1295,0,0,0,0,0,0,3.0891,3.0904,3.1008,3.096,3.0973,3.0994,3.1024,3.1026,3.1044,3.1067,3.1071,3.1047,3.1092,3.1101,3.1153,3.1179,3.1132,3.1135,3.1289,3.1292,3.1294,3.1321,0,0,0,0,0,0,3.0887,3.0903,3.0928,3.0961,3.0976,3.1055,3.1026,3.1029,3.1051,3.1049,3.1081,3.1085,3.1091,3.1147,3.1157,3.1184,3.1139,3.1287,3.129,3.1294,3.1317,3.1324,3.1329,0,0,0,0,0,3.0882,3.0933,3.0929,3.0942,3.1008,3.1057,3.1065,3.1072,3.1054,3.1078,3.1092,3.1084,3.1175,3.1152,3.1164,3.1193,3.1285,3.1289,3.1293,3.1315,3.1323,3.1329,0,0,0,0,0,0,3.0902,3.0938,3.0934,3.0997,3.1024,3.1054,3.1085,3.1081,3.1112,3.1109,3.1115,3.1122,3.1174,3.1189,3.1163,3.1251,3.1227,3.1234,3.124,3.1247,3.1253,3.1247,3.1142,0,0,0,0,0,3.0914,3.0953,3.0981,3.1034,3.1047,3.1064,3.1085,3.1088,3.1116,3.1127,3.1145,3.1171,3.1205,3.1227,3.126,3.132,3.1324,3.1345,3.1351,3.1356,3.1361,3.1389,3.1397,3.1309,3.1309,3.1309,0,0,3.0939,3.0963,3.0987,3.1038,3.1059,3.1096,3.1074,3.1115,3.1141,3.1133,3.1182,3.1197,3.1225,3.128,3.1305,3.1294,3.1386,3.1361,3.1365,3.1367,3.1394,3.1402,3.141,3.1312,3.1311,3.1311,0,0,3.1003,3.1026,3.1071,3.1092,3.1124,3.1134,3.1145,3.1175,3.1184,3.1235,3.1228,3.1258,3.1318,3.1338,3.1355,3.1422,3.1415,3.1433,3.1464,3.1491,3.1498,3.1504,3.1524,3.1532,3.1438,3.1438,3.1438,0,3.1029,3.1086,3.1094,3.1135,3.1156,3.115,3.1193,3.1213,3.1254,3.1267,3.1255,3.1326,3.1346,3.1403,3.1419,3.1435,3.1444,3.1429,3.1497,3.1503,3.1508,3.1528,3.1536,3.144,3.144,3.144,3.144,0,3.1114,3.1154,3.1186,3.1225,3.125,3.1292,3.1303,3.1327,3.1327,3.1338,3.1386,3.1409,3.1445,3.1459,3.146,3.1515,3.1507,3.1495,3.1471,3.1519,3.1536,3.1544,3.1443,3.1442,3.1441,3.1441,0,0,3.1193,3.1234,3.1246,3.1261,3.1295,3.1324,3.1364,3.14,3.1418,3.1446,3.1477,3.1526,3.1515,3.1535,3.1537,3.1562,3.1609,3.1547,3.1548,3.1555,3.1666,3.1673,3.1681,3.1604,3.1606,3.1607,3.1663,0,3.1257,3.1328,3.1335,3.1398,3.1432,3.1426,3.146,3.1483,3.1493,3.1522,3.1533,3.1566,3.1551,3.1562,3.1586,3.1598,3.163,3.1594,3.163,3.1632,3.1621,3.1691,3.1699,3.175,3.167,3.1671,3.1672,0,3.1341,3.137,3.1437,3.1462,3.1476,3.1507,3.1537,3.1566,3.1591,3.1596,3.1617,3.1616,3.1653,3.1629,3.1679,3.1654,3.167,3.1677,3.1679,3.1681,3.1653,3.1692,3.1767,3.1774,3.1684,3.1683,3.1682,0,3.1387,3.1443,3.1489,3.1503,3.1535,3.1556,3.157,3.1592,3.1612,3.1638,3.165,3.1681,3.1697,3.1719,3.1725,3.1707,3.1773,3.1751,3.1776,3.1776,3.1789,3.1788,3.1865,3.1804,3.1803,3.1803,3.1803,0,3.1455,3.1495,3.1509,3.1537,3.158,3.1587,3.1629,3.1641,3.1661,3.1689,3.1686,3.1712,3.1719,3.1746,3.1751,3.1789,3.1798,3.1801,3.1801,3.18,3.1799,3.1808,3.1803,3.1805,3.1805,3.1804,3.1804,0,3.1513,3.1525,3.1574,3.1599,3.1606,3.1636,3.1657,3.1682,3.1691,3.1727,3.1735,3.1749,3.178,3.1789,3.1826,3.1829,3.1873,3.1872,3.1865,3.1864,3.1888,3.1885,3.1972,3.1982,3.1917,3.1917,3.1918,0,3.1555,3.1585,3.1613,3.1632,3.1647,3.1678,3.1697,3.1703,3.1723,3.1751,3.1772,3.1803,3.1828,3.1877,3.1889,3.1917,3.1914,3.1942,3.1918,3.1914,3.191,3.1907,3.1908,3.1946,3.1947,3.1947,3.1948,0,3.1627,3.163,3.1659,3.1688,3.1711,3.1735,3.1757,3.1773,3.1782,3.1804,3.1835,3.1854,3.1892,3.1921,3.1948,3.196,3.1954,3.1956,3.1963,3.196,3.1954,3.1954,3.1875,3.1953,3.1953,3.1952,3.1952,3.1952,3.1676,3.1701,3.1723,3.1754,3.1771,3.1792,3.1815,3.1827,3.1854,3.1885,3.1887,3.192,3.194,3.1976,3.199,3.2014,3.2005,3.2016,3.2018,3.202,3.202,3.1952,3.2019,3.2019,3.2019,3.2019,3.2019,0,3.1744,3.1758,3.1786,3.1817,3.184,3.1834,3.1858,3.1877,3.1906,3.1926,3.195,3.1984,3.2012,3.2026,3.2052,3.2069,3.2067,3.2076,3.2073,3.2075,3.2029,3.2018,3.2077,3.2077,3.2077,3.2077,3.2077,3.2077,3.1782,3.1823,3.1828,3.1876,3.1889,3.1922,3.1935,3.1953,3.1968,3.2007,3.203,3.2039,3.2055,3.2083,3.2107,3.211,3.2118,3.2128,3.2129,3.2085,3.2079,3.2073,3.2064,3.213,3.213,3.2173,3.2174,3.2174]}]]